SCP
0 0 0 -0 -0 -0 -0 -0 -0 -0 -0 -0 -0 -0 -0 -0 -0 -0 -0 -0 -0 -0 0 0 0 0 0 0 0 0 -0 -0 -0 0 0 0 0 0 0 0 0 0 0 0 0 0 0
0 0 0 -0 -0 -0 -0 -0 -0 -0 -0 -0 -0 -0 0 0 0 0 0 0 0 0 0 0 0 0 0 0 0 0 -0 -0 0 0 0 0 0 0 0 0 0 0 0 0 0 0 0
-0 -0 -0 -0 0 -0 -0 -0 -0 -0 -0 -0 -0 0 -0 -0 -0 0 0 0 0 0 -0 0 -0 0 0 0 0 0 -0 0 0 0 0 0 0 0 0 0 0 0 0 0 0 0 0
-0 -0 -0 -0 0 0 -0 -0 -0 -0 -0 -0 -0 -0 -0 -0 -0 -0 0 0 0 0 -0 -0 -0 -0 0 0 0 -0 0 0 0 0 0 0 0 0 0 0 0 0 0 0 0 0 0
-0 -0 -0 -0 0 -0 -0 -0 -0 -0 -0 -0 -0 0 -0 -0 -0 -0 -0 0 0 -0 -0 -0 0 -0 0 0 -0 0 0 0 0 0 0 0 0 0 0 0 0 0 0 0 0 0 0
-0 -0 -0 -0 0 -0 -0 -0 -0 -0 -0 -0 -0 -0 -0 -0 -0 -0 -0 -0 0 -0 0 0 -0 -0 -0 0 0 0 -0 0 0 0 0 -0 0 0 0 0 0 0 0 0 0 0 0
-0 -0 -0 -0 -0 -0 0 -0 -0 -0 -0 -0 -0 -0 -0 -0 -0 -0 -0 0 0 -0 -0 -0 0 -0 0 0 0 -0 0 0 -0 -0 0 0 0 0 0 0 0 0 0 0 0 0 0
0 -0 -0 -0 -0 -0 -0 -0 -0 -0 -0 -0 -0 -0 -0 -0 -0 -0 0 0 0 0 0 -0 0 0 -0 0 0 0 0 -0 0 0 0 0 0 0 0 0 0 0 0 0 0 0 0
0 0 0 -0 -0 -0 -0 -0 -0 -0 -0 -0 -0 -0 -0 -0 0 -0 0 0 0 0 0 0 0 -0 0 0 -0 -0 0 0 -0 0 0 0 0 0 0 0 0 0 0 0 0 0 0
0 0 0 0 0 -0 -0 -0 0 -0 -0 -0 -0 -0 -0 -0 0 0 0 0 0 0 0 0 0 0 0 0 -0 0 0 0 -0 -0 -0 0 -0 0 0 0 0 0 0 0 0 0 0
0 0 0 0 0 0 0 0 0 0 -0 -0 -0 -0 -0 -0 0 0 0 0 0 0 0 0 0 0 0 0 0 0 0 0 -0 -0 -0 -0 -0 0 0 0 0 0 0 0 0 0 0
0 0 0 0 0 0 0 0 0 0 -0 -0 -0 -0 0 0 0 0 0 0 0 0 0 0 0 0 0 0 0 0 0 0 0 -0 0 0 0 0 -0 0 -0 0 0 0 0 0 0
0 0 0 0 0 0 0 0 0 0 0 -0 -0 -0 -0 -0 0 0 -0 0 0 0 0 0 0 0 0 0 0 0 0 -0 0 0 0 0 0 0 0 0 -0 0 0 0 0 0 0
0 0 0 0 0 0 0 0 0 0 0 -0 -0 -0 0 0 -0 -0 -0 0 -0 0 0 0 0 -0 0 0 0 0 0 0 0 0 0 0 0 0 0 0 0 0 0 0 0 0 0
0 0 0 0 0 0 0 0 0 0 0 -0 -0 0 0 0 0 0 0 0 0 0 0 0 0 0 0 0 0 0 -0 0 0 0 0 0 0 -0 0 0 0 0 0 0 0 0 0
-0 -0 0 0 0 0 0 0 0 0 0 -0 0 -0 0 0 0 0 0 0 0 0 0 0 0 0 0 0 0 0 -0 0 0 0 0 0 0 0 0 -0 0 0 0 0 0 0 0
0 0 0 0 0 0 0 0 0 0 0 -0 0 0 0 0 0 0 0 0 0 0 0 0 0 0 0 0 0 -0 0 -0 0 0 0 -0 0 -0 -0 -0 0 -0 -0 0 -0 0 0
0 0 0 0 0 0 0 0 0 -0 0 0 0 0 0 -0 0 0 0 0 0 0 0 0 0 0 0 0 0 0 -0 -0 0 -0 -0 0 0 -0 -0 -0 -0 0 0 0 -0 -0 0
0 0 0 0 0 0 0 0 0 0 -0 0 0 0 0 0 0 0 0 0 0 0 0 0 0 0 0 0 0 0 -0 -0 0 -0 0 0 0 -0 -0 0 -0 -0 0 0 -0 0 -0
0 0 0 0 0 0 0 0 0 0 0 0 0 0 0 0 0 0 0 0 0 0 0 0 0 0 0 0 0 0 -0 0 0 0 0 0 -0 -0 -0 -0 -0 0 -0 0 0 -0 0
0 0 0 0 0 0 0 0 0 0 0 0 0 0 0 0 0 0 0 0 0 0 0 0 0 0 0 0 0 -0 -0 0 -0 -0 0 0 0 -0 -0 -0 -0 -0 -0 -0 -0 -0 -0
0 0 0 0 0 0 0 0 0 0 0 0 0 0 0 0 0 0 0 0 0 0 0 0 0 0 0 0 -0 -0 -0 0 0 0 0 0 0 0 -0 -0 -0 -0 -0 -0 0 0 -0
0 0 0 0 0 0 0 0 0 0 0 0 0 0 0 0 0 0 0 0 0 0 0 0 0 -0 -0 0 -0 0 -0 -0 -0 0 0 0 0 0 0 -0 0 0 0 0 -0 -0 0
0 0 0 0 0 0 0 0 0 0 0 0 0 0 0 0 0 0 0 0 0 0 0 0 0 0 0 -0 -0 -0 -0 -0 -0 0 0 0 0 0 0 -0 0 0 0 -0 -0 -0 0
0 0 0 0 0 0 0 0 0 0 0 0 0 0 0 0 0 0 0 0 0 0 0 0 0 0 0 0 0 0 -0 0 0 0 0 0 0 0 0 0 -0 -0 0 0 0 0 0
0 0 0 0 0 0 0 0 0 0 0 0 0 0 0 0 0 0 0 0 0 0 0 0 0 -0 0 0 0 -0 -0 -0 -0 0 0 0 0 0 0 0 0 0 0 0 0 0 0
0 0 0 0 0 0 0 0 0 0 0 0 0 0 0 0 0 0 0 0 0 0 0 0 0 0 0 0 0 0 -0 0 0 0 0 0 0 0 0 0 0 0 0 0 0 0 -0
0 0 0 0 0 0 0 0 0 0 0 0 0 0 0 0 0 0 0 0 0 0 0 0 0 0 0 0 0 0 0 0 0 -0 0 0 0 0 0 0 0 0 0 0 0 0 -0
0 0 0 0 0 0 0 0 0 0 0 0 0 0 0 0 0 0 0 0 0 0 0 0 0 0 0 0 0 0 0 0 0 0 0 0 0 0 0 0 0 0 0 0 0 0 0
Wind_Speed_500mb
35 36 36 35 36 37 37 37 37 38 38 37 37 37 36 36 34 30 29 29 26 24 25 24 25 22 14 12 3 8 16 20 19 11 17 19 26 33 39 37 50 56 55 73 75 71 73
39 39 39 40 40 39 40 40 39 37 36 36 38 39 38 36 34 30 27 29 28 29 27 24 20 18 11 25 3 5 12 13 15 17 18 18 23 29 37 42 43 52 64 64 74 74 73
40 41 41 42 43 44 44 44 44 43 42 39 39 40 40 38 33 30 26 27 28 31 26 16 10 15 19 16 2 9 10 15 17 17 20 20 24 23 27 35 43 52 52 50 55 65 60
39 40 42 43 45 46 45 46 46 47 48 48 45 42 43 42 36 30 26 26 29 27 23 10 6 8 15 8 4 7 14 18 18 19 23 25 22 29 34 39 51 43 44 45 47 56 58
41 42 44 46 47 48 48 46 46 47 50 53 53 48 42 39 35 29 24 24 24 24 9 5 0 4 10 4 5 12 17 19 19 21 23 24 21 29 34 30 31 35 41 52 58 48 51
40 42 43 43 45 49 50 47 48 49 50 53 58 52 45 40 32 26 21 24 25 16 9 8 15 14 17 6 11 20 14 15 22 23 27 24 32 25 25 24 34 37 43 43 52 48 51
39 42 46 47 49 50 51 50 48 49 52 55 56 54 44 35 29 19 13 11 9 5 17 27 28 28 22 8 16 14 9 14 20 17 24 23 24 27 34 34 43 44 46 55 54 54 54
40 43 46 48 50 53 55 58 53 50 51 53 56 56 39 30 21 9 14 18 17 20 23 29 29 25 19 14 13 16 12 15 23 26 30 27 30 31 36 39 43 46 50 55 55 52 44
40 41 43 47 49 50 53 56 58 58 57 54 52 51 31 21 16 13 10 11 17 24 16 10 5 14 15 12 21 29 18 21 27 30 31 32 37 41 42 42 46 49 45 48 54 49 45
40 41 44 48 51 51 52 56 60 63 65 56 50 46 21 16 13 14 4 20 21 20 10 15 15 7 11 12 28 4 16 14 21 32 32 31 38 41 37 41 38 43 42 51 51 46 33
44 44 45 48 52 55 53 54 58 62 66 62 51 40 13 14 18 16 21 23 24 6 6 11 17 8 9 17 27 19 7 20 32 37 35 36 36 39 46 41 52 48 43 42 47 45 46
47 49 52 54 53 54 57 55 59 64 62 65 51 36 5 11 14 16 22 24 11 9 1 11 3 8 19 23 31 12 21 28 46 42 32 33 25 35 38 50 55 42 33 43 42 38 39
51 53 54 55 55 54 53 56 62 65 62 62 47 27 8 4 15 22 24 19 11 10 10 9 16 22 25 32 14 18 14 32 24 19 28 31 35 9 19 23 38 28 30 28 32 28 38
53 54 53 52 52 54 54 59 63 59 57 62 36 15 5 8 12 20 20 19 9 24 24 27 22 32 37 5 15 14 28 29 5 5 19 23 31 24 26 30 34 40 37 17 18 29 33
53 55 55 55 55 55 55 57 60 60 61 59 16 9 6 2 9 16 21 10 8 21 23 22 29 24 19 20 23 23 29 21 16 20 20 24 31 39 42 35 25 36 32 37 35 39 28
53 56 58 53 53 56 58 58 58 63 62 47 28 7 3 3 10 10 11 19 25 21 19 21 25 16 27 33 28 27 31 22 20 21 21 32 39 38 40 39 32 38 37 31 12 10 17
52 53 59 58 56 57 59 58 58 63 63 41 16 10 2 3 8 14 10 23 24 29 20 13 26 28 28 27 28 31 34 31 30 28 36 42 23 34 39 38 33 27 30 31 21 19 25
50 54 58 59 58 57 56 55 56 59 62 43 13 7 3 12 8 11 13 9 19 20 17 19 23 27 20 26 31 31 36 24 30 37 31 26 11 30 43 48 28 34 41 3 7 28 23
49 51 58 63 62 59 56 57 59 55 49 50 18 14 2 5 6 12 22 25 28 10 18 18 22 28 23 29 26 21 32 37 32 29 16 9 10 25 25 18 16 19 39 35 11 27 32
48 49 57 63 64 61 58 58 57 52 32 23 15 8 9 16 13 16 25 26 17 15 11 16 22 29 23 26 26 25 36 13 22 35 43 13 25 31 26 38 19 18 38 39 23 17 30
45 50 56 60 63 63 59 56 55 45 26 23 14 10 12 11 20 23 23 31 28 22 13 18 21 20 28 26 34 37 37 41 38 45 25 4 18 30 36 41 47 36 44 46 50 45 34
46 49 53 57 60 61 56 51 48 37 23 14 17 15 22 37 28 21 15 26 26 27 25 25 28 24 18 27 32 48 46 37 29 28 16 12 18 30 40 40 41 39 49 46 40 48 46
49 50 55 58 56 53 52 46 42 37 25 8 16 11 13 21 18 21 16 17 28 25 21 25 31 36 37 33 49 49 56 62 46 31 34 18 15 19 34 33 38 27 1 17 38 45 46
53 52 57 55 53 49 46 42 36 31 19 12 16 15 8 11 17 21 34 31 31 25 29 48 44 37 48 42 55 60 65 59 43 21 27 8 16 12 20 29 23 14 16 23 27 46 42
52 53 56 54 50 47 42 39 34 27 19 13 14 14 9 14 29 36 24 34 44 38 33 42 41 30 27 41 27 24 20 9 18 29 21 16 3 7 8 15 29 36 15 9 17 47 33
49 52 54 53 49 45 42 38 35 29 21 15 13 20 22 14 12 32 40 28 20 19 29 28 36 34 24 14 11 12 18 25 4 9 17 19 10 5 8 9 9 8 14 19 12 28 25
48 49 52 52 50 45 42 40 37 31 25 20 22 20 24 26 46 28 24 33 39 21 17 38 26 23 15 7 5 8 15 20 9 11 8 8 6 11 16 12 14 16 18 8 6 9 30
47 48 50 51 50 45 43 41 38 34 27 21 22 18 28 42 69 66 54 53 43 21 11 25 23 9 17 7 6 5 7 8 11 20 21 8 7 8 7 7 9 13 10 8 13 24 35
47 48 50 49 50 48 45 42 38 34 28 20 27 16 23 38 56 73 74 69 66 61 49 21 17 16 9 6 7 10 7 7 17 11 18 8 10 9 10 9 17 39 42 47 35 38 36
Wind_Direction_500mb
21 17 14 13 11 5 0 356 353 351 349 348 347 346 345 341 332 323 318 321 320 320 325 324 327 325 339 264 63 331 349 349 358 310 297 285 273 269 256 251 250 248 252 259 258 254 259
24 21 19 14 10 6 1 357 353 349 346 343 341 340 340 340 335 327 318 318 316 318 321 320 317 317 328 277 46 339 333 313 303 294 294 289 283 286 296 286 276 268 261 258 255 259 254
24 21 19 15 12 9 6 1 357 353 348 343 338 335 334 335 332 325 318 316 315 317 316 311 294 300 284 273 298 311 316 310 309 299 292 288 296 303 300 299 276 272 274 275 263 256 255
21 17 13 11 8 5 3 360 357 354 351 347 341 334 330 331 328 324 319 318 322 320 314 301 287 284 263 178 280 311 317 308 304 293 287 285 283 277 277 278 282 279 275 266 256 247 255
14 12 9 7 5 3 360 357 354 351 350 348 346 339 331 326 321 319 315 314 316 323 316 257 188 202 249 253 206 319 314 308 311 307 291 279 271 271 280 272 270 249 257 261 268 257 251
13 11 10 8 6 2 359 355 353 353 351 349 348 343 335 328 323 317 317 304 303 303 328 295 264 250 252 257 332 317 316 306 307 311 304 258 243 251 253 245 258 268 259 256 256 260 269
10 9 7 5 2 1 359 357 352 351 350 348 346 345 341 338 331 335 3 336 306 239 244 267 290 267 289 274 305 309 317 314 293 260 278 307 301 281 290 285 279 282 278 274 275 286 293
4 6 7 4 1 360 0 359 355 349 345 343 345 347 346 351 358 37 10 349 9 326 303 269 259 261 261 274 286 304 303 294 313 306 304 289 275 284 283 272 264 270 275 275 283 287 289
356 354 353 356 357 357 357 358 360 357 347 341 341 347 349 9 46 20 357 359 337 326 280 299 239 222 225 235 266 282 293 295 301 307 305 298 294 300 297 277 274 273 265 267 274 281 286
349 344 343 345 346 348 347 350 353 355 354 344 338 344 346 345 346 341 311 331 326 322 274 131 187 178 223 257 270 331 257 291 291 290 295 297 293 290 295 294 281 276 274 274 278 280 271
345 343 341 341 343 344 343 342 345 348 350 351 339 339 328 355 325 360 324 326 315 274 248 166 118 121 255 243 284 298 204 255 264 281 290 289 297 308 307 265 263 277 291 285 288 282 279
345 343 341 341 341 343 345 346 344 343 346 348 341 334 295 345 327 331 326 322 314 243 202 150 163 241 266 300 290 303 258 272 272 269 272 282 327 295 298 309 295 276 289 282 282 280 265
349 346 345 343 343 346 347 343 342 341 341 343 342 332 241 277 337 328 324 307 254 261 130 70 349 323 316 281 337 304 308 280 300 330 316 308 306 327 325 275 282 267 262 272 267 261 260
350 348 348 347 347 347 348 344 344 345 345 341 347 352 218 229 311 323 324 278 278 14 23 357 332 307 269 252 296 255 274 297 27 299 294 327 318 340 321 308 309 301 298 276 271 293 302
353 351 347 345 346 349 349 351 351 352 351 344 357 343 358 259 323 325 304 258 321 8 349 330 313 302 337 336 350 309 299 321 341 322 304 297 289 297 298 298 281 290 287 257 251 273 281
355 353 352 351 353 352 352 352 353 350 353 352 351 308 126 149 330 324 272 275 292 8 352 322 300 320 331 323 319 326 313 328 330 334 303 306 300 300 305 294 282 275 282 273 257 276 254
353 352 348 348 350 349 350 349 347 348 348 355 351 252 125 335 312 263 275 294 333 349 330 318 322 309 313 319 327 319 316 327 2 349 339 314 320 308 302 282 299 272 286 248 248 245 277
347 349 353 350 348 347 348 350 350 351 345 5 326 303 34 340 252 249 267 9 303 299 313 295 292 290 307 315 313 304 304 322 351 343 328 333 287 284 298 290 19 4 300 23 214 267 289
348 351 354 356 354 353 350 350 353 354 350 347 319 306 71 21 300 325 324 319 313 322 311 313 298 299 315 305 316 308 305 312 339 323 319 321 295 306 295 272 29 357 302 297 333 274 266
345 348 349 351 352 350 348 350 358 2 355 1 311 340 352 314 308 304 332 309 325 321 277 300 318 301 313 321 305 285 299 339 302 310 300 274 269 267 282 286 269 252 275 279 199 253 267
345 346 346 347 348 347 346 349 357 17 25 24 345 0 15 304 324 332 308 300 289 301 326 310 281 300 319 312 302 299 305 316 311 316 305 243 274 283 280 280 278 265 264 271 269 262 274
341 343 343 343 342 342 344 346 351 4 30 22 358 353 337 303 310 282 323 303 328 347 334 307 298 314 314 298 292 294 296 298 298 299 304 299 283 303 293 289 284 318 299 299 291 293 277
336 337 337 337 338 339 341 344 348 354 20 9 358 345 337 297 290 300 313 317 307 317 307 293 333 316 300 293 294 300 286 280 279 284 285 284 275 293 286 294 312 308 113 347 327 319 324
336 338 339 340 340 341 340 342 347 346 352 348 325 323 300 286 326 310 320 301 292 300 279 294 294 287 288 309 300 290 276 263 257 223 237 250 262 280 279 299 280 287 145 356 291 284 306
335 338 340 340 340 339 339 340 342 340 330 311 302 300 287 284 306 296 334 324 308 299 302 297 295 296 318 303 295 300 313 43 239 204 180 201 205 282 276 269 285 291 325 23 342 300 302
333 337 339 340 339 338 337 337 336 336 328 314 295 284 269 288 256 331 311 320 327 319 310 299 335 319 300 281 288 282 311 310 296 167 183 184 186 232 320 287 282 71 45 359 340 285 8
330 334 337 337 337 335 333 333 331 330 327 312 292 271 275 276 281 274 295 296 299 290 279 297 342 315 310 261 272 286 301 322 339 330 225 218 209 222 241 258 274 155 208 196 228 306 316
327 329 333 335 334 333 330 330 327 324 322 322 288 274 266 273 281 279 282 281 286 262 251 285 317 33 295 253 266 260 287 305 301 304 285 199 272 222 223 249 282 190 302 273 296 313 303
324 325 328 332 330 329 327 325 323 321 315 291 301 296 282 271 267 283 280 270 259 259 266 241 247 313 285 301 348 318 297 270 280 284 301 275 240 269 197 252 299 333 291 246 257 304 299
Wind_Speed_850mb
35 36 36 35 36 37 37 37 37 38 38 37 37 37 36 36 34 30 29 29 26 24 25 24 25 22 14 12 3 8 16 20 19 11 17 19 26 33 39 37 50 56 55 73 75 71 73
39 39 39 40 40 39 40 40 39 37 36 36 38 39 38 36 34 30 27 29 28 29 27 24 20 18 11 25 3 5 12 13 15 17 18 18 23 29 37 42 43 52 64 64 74 74 73
40 41 41 42 43 44 44 44 44 43 42 39 39 40 40 38 33 30 26 27 28 31 26 16 10 15 19 16 2 9 10 15 17 17 20 20 24 23 27 35 43 52 52 50 55 65 60
39 40 42 43 45 46 45 46 46 47 48 48 45 42 43 42 36 30 26 26 29 27 23 10 6 8 15 8 4 7 14 18 18 19 23 25 22 29 34 39 51 43 44 45 47 56 58
41 42 44 46 47 48 48 46 46 47 50 53 53 48 42 39 35 29 24 24 24 24 9 5 0 4 10 4 5 12 17 19 19 21 23 24 21 29 34 30 31 35 41 52 58 48 51
40 42 43 43 45 49 50 47 48 49 50 53 58 52 45 40 32 26 21 24 25 16 9 8 15 14 17 6 11 20 14 15 22 23 27 24 32 25 25 24 34 37 43 43 52 48 51
39 42 46 47 49 50 51 50 48 49 52 55 56 54 44 35 29 19 13 11 9 5 17 27 28 28 22 8 16 14 9 14 20 17 24 23 24 27 34 34 43 44 46 55 54 54 54
40 43 46 48 50 53 55 58 53 50 51 53 56 56 39 30 21 9 14 18 17 20 23 29 29 25 19 14 13 16 12 15 23 26 30 27 30 31 36 39 43 46 50 55 55 52 44
40 41 43 47 49 50 53 56 58 58 57 54 52 51 31 21 16 13 10 11 17 24 16 10 5 14 15 12 21 29 18 21 27 30 31 32 37 41 42 42 46 49 45 48 54 49 45
40 41 44 48 51 51 52 56 60 63 65 56 50 46 21 16 13 14 4 20 21 20 10 15 15 7 11 12 28 4 16 14 21 32 32 31 38 41 37 41 38 43 42 51 51 46 33
44 44 45 48 52 55 53 54 58 62 66 62 51 40 13 14 18 16 21 23 24 6 6 11 17 8 9 17 27 19 7 20 32 37 35 36 36 39 46 41 52 48 43 42 47 45 46
47 49 52 54 53 54 57 55 59 64 62 65 51 36 5 11 14 16 22 24 11 9 1 11 3 8 19 23 31 12 21 28 46 42 32 33 25 35 38 50 55 42 33 43 42 38 39
51 53 54 55 55 54 53 56 62 65 62 62 47 27 8 4 15 22 24 19 11 10 10 9 16 22 25 32 14 18 14 32 24 19 28 31 35 9 19 23 38 28 30 28 32 28 38
53 54 53 52 52 54 54 59 63 59 57 62 36 15 5 8 12 20 20 19 9 24 24 27 22 32 37 5 15 14 28 29 5 5 19 23 31 24 26 30 34 40 37 17 18 29 33
53 55 55 55 55 55 55 57 60 60 61 59 16 9 6 2 9 16 21 10 8 21 23 22 29 24 19 20 23 23 29 21 16 20 20 24 31 39 42 35 25 36 32 37 35 39 28
53 56 58 53 53 56 58 58 58 63 62 47 28 7 3 3 10 10 11 19 25 21 19 21 25 16 27 33 28 27 31 22 20 21 21 32 39 38 40 39 32 38 37 31 12 10 17
52 53 59 58 56 57 59 58 58 63 63 41 16 10 2 3 8 14 10 23 24 29 20 13 26 28 28 27 28 31 34 31 30 28 36 42 23 34 39 38 33 27 30 31 21 19 25
50 54 58 59 58 57 56 55 56 59 62 43 13 7 3 12 8 11 13 9 19 20 17 19 23 27 20 26 31 31 36 24 30 37 31 26 11 30 43 48 28 34 41 3 7 28 23
49 51 58 63 62 59 56 57 59 55 49 50 18 14 2 5 6 12 22 25 28 10 18 18 22 28 23 29 26 21 32 37 32 29 16 9 10 25 25 18 16 19 39 35 11 27 32
48 49 57 63 64 61 58 58 57 52 32 23 15 8 9 16 13 16 25 26 17 15 11 16 22 29 23 26 26 25 36 13 22 35 43 13 25 31 26 38 19 18 38 39 23 17 30
45 50 56 60 63 63 59 56 55 45 26 23 14 10 12 11 20 23 23 31 28 22 13 18 21 20 28 26 34 37 37 41 38 45 25 4 18 30 36 41 47 36 44 46 50 45 34
46 49 53 57 60 61 56 51 48 37 23 14 17 15 22 37 28 21 15 26 26 27 25 25 28 24 18 27 32 48 46 37 29 28 16 12 18 30 40 40 41 39 49 46 40 48 46
49 50 55 58 56 53 52 46 42 37 25 8 16 11 13 21 18 21 16 17 28 25 21 25 31 36 37 33 49 49 56 62 46 31 34 18 15 19 34 33 38 27 1 17 38 45 46
53 52 57 55 53 49 46 42 36 31 19 12 16 15 8 11 17 21 34 31 31 25 29 48 44 37 48 42 55 60 65 59 43 21 27 8 16 12 20 29 23 14 16 23 27 46 42
52 53 56 54 50 47 42 39 34 27 19 13 14 14 9 14 29 36 24 34 44 38 33 42 41 30 27 41 27 24 20 9 18 29 21 16 3 7 8 15 29 36 15 9 17 47 33
49 52 54 53 49 45 42 38 35 29 21 15 13 20 22 14 12 32 40 28 20 19 29 28 36 34 24 14 11 12 18 25 4 9 17 19 10 5 8 9 9 8 14 19 12 28 25
48 49 52 52 50 45 42 40 37 31 25 20 22 20 24 26 46 28 24 33 39 21 17 38 26 23 15 7 5 8 15 20 9 11 8 8 6 11 16 12 14 16 18 8 6 9 30
47 48 50 51 50 45 43 41 38 34 27 21 22 18 28 42 69 66 54 53 43 21 11 25 23 9 17 7 6 5 7 8 11 20 21 8 7 8 7 7 9 13 10 8 13 24 35
47 48 50 49 50 48 45 42 38 34 28 20 27 16 23 38 56 73 74 69 66 61 49 21 17 16 9 6 7 10 7 7 17 11 18 8 10 9 10 9 17 39 42 47 35 38 36
Wind_Direction_850mb
21 17 14 13 11 5 0 356 353 351 349 348 347 346 345 341 332 323 318 321 320 320 325 324 327 325 339 264 63 331 349 349 358 310 297 285 273 269 256 251 250 248 252 259 258 254 259
24 21 19 14 10 6 1 357 353 349 346 343 341 340 340 340 335 327 318 318 316 318 321 320 317 317 328 277 46 339 333 313 303 294 294 289 283 286 296 286 276 268 261 258 255 259 254
24 21 19 15 12 9 6 1 357 353 348 343 338 335 334 335 332 325 318 316 315 317 316 311 294 300 284 273 298 311 316 310 309 299 292 288 296 303 300 299 276 272 274 275 263 256 255
21 17 13 11 8 5 3 360 357 354 351 347 341 334 330 331 328 324 319 318 322 320 314 301 287 284 263 178 280 311 317 308 304 293 287 285 283 277 277 278 282 279 275 266 256 247 255
14 12 9 7 5 3 360 357 354 351 350 348 346 339 331 326 321 319 315 314 316 323 316 257 188 202 249 253 206 319 314 308 311 307 291 279 271 271 280 272 270 249 257 261 268 257 251
13 11 10 8 6 2 359 355 353 353 351 349 348 343 335 328 323 317 317 304 303 303 328 295 264 250 252 257 332 317 316 306 307 311 304 258 243 251 253 245 258 268 259 256 256 260 269
10 9 7 5 2 1 359 357 352 351 350 348 346 345 341 338 331 335 3 336 306 239 244 267 290 267 289 274 305 309 317 314 293 260 278 307 301 281 290 285 279 282 278 274 275 286 293
4 6 7 4 1 360 0 359 355 349 345 343 345 347 346 351 358 37 10 349 9 326 303 269 259 261 261 274 286 304 303 294 313 306 304 289 275 284 283 272 264 270 275 275 283 287 289
356 354 353 356 357 357 357 358 360 357 347 341 341 347 349 9 46 20 357 359 337 326 280 299 239 222 225 235 266 282 293 295 301 307 305 298 294 300 297 277 274 273 265 267 274 281 286
349 344 343 345 346 348 347 350 353 355 354 344 338 344 346 345 346 341 311 331 326 322 274 131 187 178 223 257 270 331 257 291 291 290 295 297 293 290 295 294 281 276 274 274 278 280 271
345 343 341 341 343 344 343 342 345 348 350 351 339 339 328 355 325 360 324 326 315 274 248 166 118 121 255 243 284 298 204 255 264 281 290 289 297 308 307 265 263 277 291 285 288 282 279
345 343 341 341 341 343 345 346 344 343 346 348 341 334 295 345 327 331 326 322 314 243 202 150 163 241 266 300 290 303 258 272 272 269 272 282 327 295 298 309 295 276 289 282 282 280 265
349 346 345 343 343 346 347 343 342 341 341 343 342 332 241 277 337 328 324 307 254 261 130 70 349 323 316 281 337 304 308 280 300 330 316 308 306 327 325 275 282 267 262 272 267 261 260
350 348 348 347 347 347 348 344 344 345 345 341 347 352 218 229 311 323 324 278 278 14 23 357 332 307 269 252 296 255 274 297 27 299 294 327 318 340 321 308 309 301 298 276 271 293 302
353 351 347 345 346 349 349 351 351 352 351 344 357 343 358 259 323 325 304 258 321 8 349 330 313 302 337 336 350 309 299 321 341 322 304 297 289 297 298 298 281 290 287 257 251 273 281
355 353 352 351 353 352 352 352 353 350 353 352 351 308 126 149 330 324 272 275 292 8 352 322 300 320 331 323 319 326 313 328 330 334 303 306 300 300 305 294 282 275 282 273 257 276 254
353 352 348 348 350 349 350 349 347 348 348 355 351 252 125 335 312 263 275 294 333 349 330 318 322 309 313 319 327 319 316 327 2 349 339 314 320 308 302 282 299 272 286 248 248 245 277
347 349 353 350 348 347 348 350 350 351 345 5 326 303 34 340 252 249 267 9 303 299 313 295 292 290 307 315 313 304 304 322 351 343 328 333 287 284 298 290 19 4 300 23 214 267 289
348 351 354 356 354 353 350 350 353 354 350 347 319 306 71 21 300 325 324 319 313 322 311 313 298 299 315 305 316 308 305 312 339 323 319 321 295 306 295 272 29 357 302 297 333 274 266
345 348 349 351 352 350 348 350 358 2 355 1 311 340 352 314 308 304 332 309 325 321 277 300 318 301 313 321 305 285 299 339 302 310 300 274 269 267 282 286 269 252 275 279 199 253 267
345 346 346 347 348 347 346 349 357 17 25 24 345 0 15 304 324 332 308 300 289 301 326 310 281 300 319 312 302 299 305 316 311 316 305 243 274 283 280 280 278 265 264 271 269 262 274
341 343 343 343 342 342 344 346 351 4 30 22 358 353 337 303 310 282 323 303 328 347 334 307 298 314 314 298 292 294 296 298 298 299 304 299 283 303 293 289 284 318 299 299 291 293 277
336 337 337 337 338 339 341 344 348 354 20 9 358 345 337 297 290 300 313 317 307 317 307 293 333 316 300 293 294 300 286 280 279 284 285 284 275 293 286 294 312 308 113 347 327 319 324
336 338 339 340 340 341 340 342 347 346 352 348 325 323 300 286 326 310 320 301 292 300 279 294 294 287 288 309 300 290 276 263 257 223 237 250 262 280 279 299 280 287 145 356 291 284 306
335 338 340 340 340 339 339 340 342 340 330 311 302 300 287 284 306 296 334 324 308 299 302 297 295 296 318 303 295 300 313 43 239 204 180 201 205 282 276 269 285 291 325 23 342 300 302
333 337 339 340 339 338 337 337 336 336 328 314 295 284 269 288 256 331 311 320 327 319 310 299 335 319 300 281 288 282 311 310 296 167 183 184 186 232 320 287 282 71 45 359 340 285 8
330 334 337 337 337 335 333 333 331 330 327 312 292 271 275 276 281 274 295 296 299 290 279 297 342 315 310 261 272 286 301 322 339 330 225 218 209 222 241 258 274 155 208 196 228 306 316
327 329 333 335 334 333 330 330 327 324 322 322 288 274 266 273 281 279 282 281 286 262 251 285 317 33 295 253 266 260 287 305 301 304 285 199 272 222 223 249 282 190 302 273 296 313 303
324 325 328 332 330 329 327 325 323 321 315 291 301 296 282 271 267 283 280 270 259 259 266 241 247 313 285 301 348 318 297 270 280 284 301 275 240 269 197 252 299 333 291 246 257 304 299